Data supplied by UK-AIR on 5/4/2008
All Data GMT hour ending 
Status: R =Ratified P=Provisional,P*=As supplied
,,Yarner Wood,,,,,,,,,,,,,,,,,,,,,,,
Date,time,"Nitric oxide",status,unit,"Nitrogen dioxide",status,unit,"Nitrogen oxides as nitrogen dioxide",status,unit,"Ozone",status,unit
 
01-01-2003,01:00,,,,,,,,,,,,
01-01-2003,02:00,,,,,,,,,,70,R,ugm-3
01-01-2003,03:00,,,,,,,,,,74,R,ugm-3
01-01-2003,04:00,,,,,,,,,,72,R,ugm-3
01-01-2003,05:00,,,,,,,,,,72,R,ugm-3
01-01-2003,06:00,,,,,,,,,,70,R,ugm-3
01-01-2003,07:00,,,,,,,,,,74,R,ugm-3
01-01-2003,08:00,,,,,,,,,,82,R,ugm-3
01-01-2003,09:00,,,,,,,,,,74,R,ugm-3
01-01-2003,10:00,,,,,,,,,,66,R,ugm-3
01-01-2003,11:00,,,,,,,,,,76,R,ugm-3
01-01-2003,12:00,,,,,,,,,,82,R,ugm-3
01-01-2003,13:00,,,,,,,,,,78,R,ugm-3
01-01-2003,14:00,,,,,,,,,,78,R,ugm-3
01-01-2003,15:00,,,,,,,,,,82,R,ugm-3
01-01-2003,16:00,,,,,,,,,,84,R,ugm-3
01-01-2003,17:00,,,,,,,,,,84,R,ugm-3
01-01-2003,18:00,,,,,,,,,,86,R,ugm-3
01-01-2003,19:00,,,,,,,,,,88,R,ugm-3
01-01-2003,20:00,,,,,,,,,,84,R,ugm-3
01-01-2003,21:00,,,,,,,,,,82,R,ugm-3
01-01-2003,22:00,,,,,,,,,,80,R,ugm-3
01-01-2003,23:00,,,,,,,,,,78,R,ugm-3
01-01-2003,24:00,,,,,,,,,,78,R,ugm-3
02-01-2003,01:00,,,,,,,,,,78,R,ugm-3
02-01-2003,02:00,,,,,,,,,,66,R,ugm-3
02-01-2003,03:00,,,,,,,,,,70,R,ugm-3
02-01-2003,04:00,,,,,,,,,,74,R,ugm-3
02-01-2003,05:00,,,,,,,,,,76,R,ugm-3
02-01-2003,06:00,,,,,,,,,,82,R,ugm-3
02-01-2003,07:00,,,,,,,,,,88,R,ugm-3
02-01-2003,08:00,,,,,,,,,,88,R,ugm-3
02-01-2003,09:00,,,,,,,,,,90,R,ugm-3
02-01-2003,10:00,,,,,,,,,,86,R,ugm-3
02-01-2003,11:00,,,,,,,,,,74,R,ugm-3
02-01-2003,12:00,,,,,,,,,,76,R,ugm-3
02-01-2003,13:00,,,,,,,,,,78,R,ugm-3
02-01-2003,14:00,,,,,,,,,,78,R,ugm-3
02-01-2003,15:00,,,,,,,,,,72,R,ugm-3
02-01-2003,16:00,,,,,,,,,,72,R,ugm-3
02-01-2003,17:00,,,,,,,,,,76,R,ugm-3
02-01-2003,18:00,,,,,,,,,,74,R,ugm-3
02-01-2003,19:00,,,,,,,,,,76,R,ugm-3
02-01-2003,20:00,,,,,,,,,,74,R,ugm-3
02-01-2003,21:00,,,,,,,,,,76,R,ugm-3
02-01-2003,22:00,,,,,,,,,,74,R,ugm-3
02-01-2003,23:00,,,,,,,,,,76,R,ugm-3
02-01-2003,24:00,,,,,,,,,,76,R,ugm-3
03-01-2003,01:00,,,,,,,,,,72,R,ugm-3
03-01-2003,02:00,,,,,,,,,,72,R,ugm-3
03-01-2003,03:00,,,,,,,,,,72,R,ugm-3
03-01-2003,04:00,,,,,,,,,,76,R,ugm-3
03-01-2003,05:00,,,,,,,,,,66,R,ugm-3
03-01-2003,06:00,,,,,,,,,,38,R,ugm-3
03-01-2003,07:00,,,,,,,,,,26,R,ugm-3
03-01-2003,08:00,,,,,,,,,,26,R,ugm-3
03-01-2003,09:00,,,,,,,,,,26,R,ugm-3
03-01-2003,10:00,,,,,,,,,,34,R,ugm-3
03-01-2003,11:00,,,,,,,,,,,,
03-01-2003,12:00,,,,,,,,,,38,R,ugm-3
03-01-2003,13:00,,,,,,,,,,34,R,ugm-3
03-01-2003,14:00,,,,,,,,,,38,R,ugm-3
03-01-2003,15:00,,,,,,,,,,38,R,ugm-3
03-01-2003,16:00,,,,,,,,,,26,R,ugm-3
03-01-2003,17:00,,,,,,,,,,24,R,ugm-3
03-01-2003,18:00,,,,,,,,,,38,R,ugm-3
03-01-2003,19:00,,,,,,,,,,48,R,ugm-3
03-01-2003,20:00,,,,,,,,,,38,R,ugm-3
03-01-2003,21:00,,,,,,,,,,42,R,ugm-3
03-01-2003,22:00,,,,,,,,,,38,R,ugm-3
03-01-2003,23:00,,,,,,,,,,30,R,ugm-3
03-01-2003,24:00,,,,,,,,,,32,R,ugm-3
04-01-2003,01:00,,,,,,,,,,36,R,ugm-3
04-01-2003,02:00,,,,,,,,,,38,R,ugm-3
04-01-2003,03:00,,,,,,,,,,46,R,ugm-3
04-01-2003,04:00,,,,,,,,,,46,R,ugm-3
04-01-2003,05:00,,,,,,,,,,48,R,ugm-3
04-01-2003,06:00,,,,,,,,,,50,R,ugm-3
04-01-2003,07:00,,,,,,,,,,50,R,ugm-3
04-01-2003,08:00,,,,,,,,,,50,R,ugm-3
04-01-2003,09:00,,,,,,,,,,48,R,ugm-3
04-01-2003,10:00,,,,,,,,,,50,R,ugm-3
04-01-2003,11:00,,,,,,,,,,50,R,ugm-3
04-01-2003,12:00,,,,,,,,,,52,R,ugm-3
04-01-2003,13:00,,,,,,,,,,54,R,ugm-3
04-01-2003,14:00,,,,,,,,,,50,R,ugm-3
04-01-2003,15:00,,,,,,,,,,52,R,ugm-3
04-01-2003,16:00,,,,,,,,,,46,R,ugm-3
04-01-2003,17:00,,,,,,,,,,42,R,ugm-3
04-01-2003,18:00,,,,,,,,,,38,R,ugm-3
04-01-2003,19:00,,,,,,,,,,36,R,ugm-3
04-01-2003,20:00,,,,,,,,,,36,R,ugm-3
04-01-2003,21:00,,,,,,,,,,36,R,ugm-3
04-01-2003,22:00,,,,,,,,,,30,R,ugm-3
04-01-2003,23:00,,,,,,,,,,28,R,ugm-3
04-01-2003,24:00,,,,,,,,,,24,R,ugm-3
05-01-2003,01:00,,,,,,,,,,22,R,ugm-3
05-01-2003,02:00,,,,,,,,,,24,R,ugm-3
05-01-2003,03:00,,,,,,,,,,26,R,ugm-3
05-01-2003,04:00,,,,,,,,,,28,R,ugm-3
05-01-2003,05:00,,,,,,,,,,26,R,ugm-3
05-01-2003,06:00,,,,,,,,,,32,R,ugm-3
05-01-2003,07:00,,,,,,,,,,30,R,ugm-3
05-01-2003,08:00,,,,,,,,,,32,R,ugm-3
05-01-2003,09:00,,,,,,,,,,34,R,ugm-3
05-01-2003,10:00,,,,,,,,,,,,
05-01-2003,11:00,,,,,,,,,,42,R,ugm-3
05-01-2003,12:00,,,,,,,,,,50,R,ugm-3
05-01-2003,13:00,,,,,,,,,,52,R,ugm-3
05-01-2003,14:00,,,,,,,,,,52,R,ugm-3
05-01-2003,15:00,,,,,,,,,,56,R,ugm-3
05-01-2003,16:00,,,,,,,,,,50,R,ugm-3
05-01-2003,17:00,,,,,,,,,,44,R,ugm-3
05-01-2003,18:00,,,,,,,,,,44,R,ugm-3
05-01-2003,19:00,,,,,,,,,,40,R,ugm-3
05-01-2003,20:00,,,,,,,,,,42,R,ugm-3
05-01-2003,21:00,,,,,,,,,,40,R,ugm-3
05-01-2003,22:00,,,,,,,,,,40,R,ugm-3
05-01-2003,23:00,,,,,,,,,,30,R,ugm-3
05-01-2003,24:00,,,,,,,,,,32,R,ugm-3
06-01-2003,01:00,,,,,,,,,,38,R,ugm-3
06-01-2003,02:00,,,,,,,,,,42,R,ugm-3
06-01-2003,03:00,,,,,,,,,,38,R,ugm-3
06-01-2003,04:00,,,,,,,,,,34,R,ugm-3
06-01-2003,05:00,,,,,,,,,,40,R,ugm-3
06-01-2003,06:00,,,,,,,,,,40,R,ugm-3
06-01-2003,07:00,,,,,,,,,,48,R,ugm-3
06-01-2003,08:00,,,,,,,,,,42,R,ugm-3
06-01-2003,09:00,,,,,,,,,,32,R,ugm-3
06-01-2003,10:00,,,,,,,,,,32,R,ugm-3
06-01-2003,11:00,,,,,,,,,,40,R,ugm-3
06-01-2003,12:00,,,,,,,,,,42,R,ugm-3
06-01-2003,13:00,,,,,,,,,,40,R,ugm-3
06-01-2003,14:00,,,,,,,,,,48,R,ugm-3
06-01-2003,15:00,,,,,,,,,,46,R,ugm-3
06-01-2003,16:00,,,,,,,,,,46,R,ugm-3
06-01-2003,17:00,,,,,,,,,,38,R,ugm-3
06-01-2003,18:00,,,,,,,,,,36,R,ugm-3
06-01-2003,19:00,,,,,,,,,,34,R,ugm-3
06-01-2003,20:00,,,,,,,,,,42,R,ugm-3
06-01-2003,21:00,,,,,,,,,,46,R,ugm-3
06-01-2003,22:00,,,,,,,,,,46,R,ugm-3
06-01-2003,23:00,,,,,,,,,,48,R,ugm-3
06-01-2003,24:00,,,,,,,,,,52,R,ugm-3
07-01-2003,01:00,,,,,,,,,,54,R,ugm-3
07-01-2003,02:00,,,,,,,,,,52,R,ugm-3
07-01-2003,03:00,,,,,,,,,,50,R,ugm-3
07-01-2003,04:00,,,,,,,,,,44,R,ugm-3
07-01-2003,05:00,,,,,,,,,,40,R,ugm-3
07-01-2003,06:00,,,,,,,,,,40,R,ugm-3
07-01-2003,07:00,,,,,,,,,,38,R,ugm-3
07-01-2003,08:00,,,,,,,,,,36,R,ugm-3
07-01-2003,09:00,,,,,,,,,,36,R,ugm-3
07-01-2003,10:00,,,,,,,,,,42,R,ugm-3
07-01-2003,11:00,,,,,,,,,,46,R,ugm-3
07-01-2003,12:00,,,,,,,,,,52,R,ugm-3
07-01-2003,13:00,,,,,,,,,,48,R,ugm-3
07-01-2003,14:00,,,,,,,,,,50,R,ugm-3
07-01-2003,15:00,,,,,,,,,,50,R,ugm-3
07-01-2003,16:00,,,,,,,,,,52,R,ugm-3
07-01-2003,17:00,,,,,,,,,,54,R,ugm-3
07-01-2003,18:00,,,,,,,,,,52,R,ugm-3
07-01-2003,19:00,,,,,,,,,,48,R,ugm-3
07-01-2003,20:00,,,,,,,,,,44,R,ugm-3
07-01-2003,21:00,,,,,,,,,,42,R,ugm-3
07-01-2003,22:00,,,,,,,,,,38,R,ugm-3
07-01-2003,23:00,,,,,,,,,,38,R,ugm-3
07-01-2003,24:00,,,,,,,,,,38,R,ugm-3
08-01-2003,01:00,,,,,,,,,,40,R,ugm-3
08-01-2003,02:00,,,,,,,,,,40,R,ugm-3
08-01-2003,03:00,,,,,,,,,,38,R,ugm-3
08-01-2003,04:00,,,,,,,,,,32,R,ugm-3
08-01-2003,05:00,,,,,,,,,,30,R,ugm-3
08-01-2003,06:00,,,,,,,,,,28,R,ugm-3
08-01-2003,07:00,,,,,,,,,,24,R,ugm-3
08-01-2003,08:00,,,,,,,,,,22,R,ugm-3
08-01-2003,09:00,,,,,,,,,,22,R,ugm-3
08-01-2003,10:00,,,,,,,,,,30,R,ugm-3
08-01-2003,11:00,,,,,,,,,,32,R,ugm-3
08-01-2003,12:00,,,,,,,,,,34,R,ugm-3
08-01-2003,13:00,,,,,,,,,,32,R,ugm-3
08-01-2003,14:00,,,,,,,,,,44,R,ugm-3
08-01-2003,15:00,,,,,,,,,,46,R,ugm-3
08-01-2003,16:00,,,,,,,,,,42,R,ugm-3
08-01-2003,17:00,,,,,,,,,,34,R,ugm-3
08-01-2003,18:00,,,,,,,,,,40,R,ugm-3
08-01-2003,19:00,,,,,,,,,,30,R,ugm-3
08-01-2003,20:00,,,,,,,,,,18,R,ugm-3
08-01-2003,21:00,,,,,,,,,,16,R,ugm-3
08-01-2003,22:00,,,,,,,,,,22,R,ugm-3
08-01-2003,23:00,,,,,,,,,,30,R,ugm-3
08-01-2003,24:00,,,,,,,,,,36,R,ugm-3
09-01-2003,01:00,,,,,,,,,,42,R,ugm-3
09-01-2003,02:00,,,,,,,,,,40,R,ugm-3
09-01-2003,03:00,,,,,,,,,,40,R,ugm-3
09-01-2003,04:00,,,,,,,,,,44,R,ugm-3
09-01-2003,05:00,,,,,,,,,,48,R,ugm-3
09-01-2003,06:00,,,,,,,,,,56,R,ugm-3
09-01-2003,07:00,,,,,,,,,,54,R,ugm-3
09-01-2003,08:00,,,,,,,,,,52,R,ugm-3
09-01-2003,09:00,,,,,,,,,,52,R,ugm-3
09-01-2003,10:00,,,,,,,,,,52,R,ugm-3
09-01-2003,11:00,,,,,,,,,,52,R,ugm-3
09-01-2003,12:00,,,,,,,,,,50,R,ugm-3
09-01-2003,13:00,,,,,,,,,,50,R,ugm-3
09-01-2003,14:00,,,,,,,,,,48,R,ugm-3
09-01-2003,15:00,,,,,,,,,,48,R,ugm-3
09-01-2003,16:00,,,,,,,,,,50,R,ugm-3
09-01-2003,17:00,,,,,,,,,,48,R,ugm-3
09-01-2003,18:00,,,,,,,,,,46,R,ugm-3
09-01-2003,19:00,,,,,,,,,,38,R,ugm-3
09-01-2003,20:00,,,,,,,,,,34,R,ugm-3
09-01-2003,21:00,,,,,,,,,,32,R,ugm-3
09-01-2003,22:00,,,,,,,,,,32,R,ugm-3
09-01-2003,23:00,,,,,,,,,,36,R,ugm-3
09-01-2003,24:00,,,,,,,,,,36,R,ugm-3
10-01-2003,01:00,,,,,,,,,,32,R,ugm-3
10-01-2003,02:00,,,,,,,,,,30,R,ugm-3
10-01-2003,03:00,,,,,,,,,,30,R,ugm-3
10-01-2003,04:00,,,,,,,,,,32,R,ugm-3
10-01-2003,05:00,,,,,,,,,,34,R,ugm-3
10-01-2003,06:00,,,,,,,,,,36,R,ugm-3
10-01-2003,07:00,,,,,,,,,,40,R,ugm-3
10-01-2003,08:00,,,,,,,,,,42,R,ugm-3
10-01-2003,09:00,,,,,,,,,,40,R,ugm-3
10-01-2003,10:00,,,,,,,,,,40,R,ugm-3
10-01-2003,11:00,,,,,,,,,,48,R,ugm-3
10-01-2003,12:00,,,,,,,,,,50,R,ugm-3
10-01-2003,13:00,,,,,,,,,,52,R,ugm-3
10-01-2003,14:00,,,,,,,,,,58,R,ugm-3
10-01-2003,15:00,,,,,,,,,,64,R,ugm-3
10-01-2003,16:00,,,,,,,,,,66,R,ugm-3
10-01-2003,17:00,,,,,,,,,,66,R,ugm-3
10-01-2003,18:00,,,,,,,,,,62,R,ugm-3
10-01-2003,19:00,,,,,,,,,,58,R,ugm-3
10-01-2003,20:00,,,,,,,,,,56,R,ugm-3
10-01-2003,21:00,,,,,,,,,,56,R,ugm-3
10-01-2003,22:00,,,,,,,,,,50,R,ugm-3
10-01-2003,23:00,,,,,,,,,,48,R,ugm-3
10-01-2003,24:00,,,,,,,,,,50,R,ugm-3
11-01-2003,01:00,,,,,,,,,,48,R,ugm-3
11-01-2003,02:00,,,,,,,,,,42,R,ugm-3
11-01-2003,03:00,,,,,,,,,,42,R,ugm-3
11-01-2003,04:00,,,,,,,,,,40,R,ugm-3
11-01-2003,05:00,,,,,,,,,,40,R,ugm-3
11-01-2003,06:00,,,,,,,,,,44,R,ugm-3
11-01-2003,07:00,,,,,,,,,,36,R,ugm-3
11-01-2003,08:00,,,,,,,,,,28,R,ugm-3
11-01-2003,09:00,,,,,,,,,,26,R,ugm-3
11-01-2003,10:00,,,,,,,,,,28,R,ugm-3
11-01-2003,11:00,,,,,,,,,,28,R,ugm-3
11-01-2003,12:00,,,,,,,,,,28,R,ugm-3
11-01-2003,13:00,,,,,,,,,,38,R,ugm-3
11-01-2003,14:00,,,,,,,,,,38,R,ugm-3
11-01-2003,15:00,,,,,,,,,,36,R,ugm-3
11-01-2003,16:00,,,,,,,,,,32,R,ugm-3
11-01-2003,17:00,,,,,,,,,,26,R,ugm-3
11-01-2003,18:00,,,,,,,,,,24,R,ugm-3
11-01-2003,19:00,,,,,,,,,,18,R,ugm-3
11-01-2003,20:00,,,,,,,,,,22,R,ugm-3
11-01-2003,21:00,,,,,,,,,,22,R,ugm-3
11-01-2003,22:00,,,,,,,,,,24,R,ugm-3
11-01-2003,23:00,,,,,,,,,,30,R,ugm-3
11-01-2003,24:00,,,,,,,,,,38,R,ugm-3
12-01-2003,01:00,,,,,,,,,,38,R,ugm-3
12-01-2003,02:00,,,,,,,,,,36,R,ugm-3
12-01-2003,03:00,,,,,,,,,,34,R,ugm-3
12-01-2003,04:00,,,,,,,,,,32,R,ugm-3
12-01-2003,05:00,,,,,,,,,,36,R,ugm-3
12-01-2003,06:00,,,,,,,,,,40,R,ugm-3
12-01-2003,07:00,,,,,,,,,,38,R,ugm-3
12-01-2003,08:00,,,,,,,,,,38,R,ugm-3
12-01-2003,09:00,,,,,,,,,,34,R,ugm-3
12-01-2003,10:00,,,,,,,,,,20,R,ugm-3
12-01-2003,11:00,,,,,,,,,,24,R,ugm-3
12-01-2003,12:00,,,,,,,,,,24,R,ugm-3
12-01-2003,13:00,,,,,,,,,,38,R,ugm-3
12-01-2003,14:00,,,,,,,,,,56,R,ugm-3
12-01-2003,15:00,,,,,,,,,,56,R,ugm-3
12-01-2003,16:00,,,,,,,,,,52,R,ugm-3
12-01-2003,17:00,,,,,,,,,,46,R,ugm-3
12-01-2003,18:00,,,,,,,,,,48,R,ugm-3
12-01-2003,19:00,,,,,,,,,,52,R,ugm-3
12-01-2003,20:00,,,,,,,,,,56,R,ugm-3
12-01-2003,21:00,,,,,,,,,,58,R,ugm-3
12-01-2003,22:00,,,,,,,,,,58,R,ugm-3
12-01-2003,23:00,,,,,,,,,,60,R,ugm-3
12-01-2003,24:00,,,,,,,,,,60,R,ugm-3
13-01-2003,01:00,,,,,,,,,,66,R,ugm-3
13-01-2003,02:00,,,,,,,,,,68,R,ugm-3
13-01-2003,03:00,,,,,,,,,,68,R,ugm-3
13-01-2003,04:00,,,,,,,,,,72,R,ugm-3
13-01-2003,05:00,,,,,,,,,,70,R,ugm-3
13-01-2003,06:00,,,,,,,,,,64,R,ugm-3
13-01-2003,07:00,,,,,,,,,,68,R,ugm-3
13-01-2003,08:00,,,,,,,,,,72,R,ugm-3
13-01-2003,09:00,,,,,,,,,,70,R,ugm-3
13-01-2003,10:00,,,,,,,,,,66,R,ugm-3
13-01-2003,11:00,,,,,,,,,,68,R,ugm-3
13-01-2003,12:00,,,,,,,,,,66,R,ugm-3
13-01-2003,13:00,,,,,,,,,,66,R,ugm-3
13-01-2003,14:00,,,,,,,,,,70,R,ugm-3
13-01-2003,15:00,,,,,,,,,,70,R,ugm-3
13-01-2003,16:00,,,,,,,,,,70,R,ugm-3
13-01-2003,17:00,,,,,,,,,,70,R,ugm-3
13-01-2003,18:00,,,,,,,,,,72,R,ugm-3
13-01-2003,19:00,,,,,,,,,,70,R,ugm-3
13-01-2003,20:00,,,,,,,,,,70,R,ugm-3
13-01-2003,21:00,,,,,,,,,,72,R,ugm-3
13-01-2003,22:00,,,,,,,,,,72,R,ugm-3
13-01-2003,23:00,,,,,,,,,,68,R,ugm-3
13-01-2003,24:00,,,,,,,,,,68,R,ugm-3
14-01-2003,01:00,,,,,,,,,,66,R,ugm-3
14-01-2003,02:00,,,,,,,,,,64,R,ugm-3
14-01-2003,03:00,,,,,,,,,,66,R,ugm-3
14-01-2003,04:00,,,,,,,,,,68,R,ugm-3
14-01-2003,05:00,,,,,,,,,,68,R,ugm-3
14-01-2003,06:00,,,,,,,,,,66,R,ugm-3
14-01-2003,07:00,,,,,,,,,,66,R,ugm-3
14-01-2003,08:00,,,,,,,,,,68,R,ugm-3
14-01-2003,09:00,,,,,,,,,,70,R,ugm-3
14-01-2003,10:00,,,,,,,,,,70,R,ugm-3
14-01-2003,11:00,,,,,,,,,,70,R,ugm-3
14-01-2003,12:00,,,,,,,,,,72,R,ugm-3
14-01-2003,13:00,,,,,,,,,,72,R,ugm-3
14-01-2003,14:00,,,,,,,,,,74,R,ugm-3
14-01-2003,15:00,,,,,,,,,,74,R,ugm-3
14-01-2003,16:00,,,,,,,,,,70,R,ugm-3
14-01-2003,17:00,,,,,,,,,,76,R,ugm-3
14-01-2003,18:00,,,,,,,,,,78,R,ugm-3
14-01-2003,19:00,,,,,,,,,,80,R,ugm-3
14-01-2003,20:00,,,,,,,,,,80,R,ugm-3
14-01-2003,21:00,,,,,,,,,,80,R,ugm-3
14-01-2003,22:00,,,,,,,,,,82,R,ugm-3
14-01-2003,23:00,,,,,,,,,,84,R,ugm-3
14-01-2003,24:00,,,,,,,,,,82,R,ugm-3
15-01-2003,01:00,,,,,,,,,,82,R,ugm-3
15-01-2003,02:00,,,,,,,,,,82,R,ugm-3
15-01-2003,03:00,,,,,,,,,,80,R,ugm-3
15-01-2003,04:00,,,,,,,,,,78,R,ugm-3
15-01-2003,05:00,,,,,,,,,,78,R,ugm-3
15-01-2003,06:00,,,,,,,,,,74,R,ugm-3
15-01-2003,07:00,,,,,,,,,,72,R,ugm-3
15-01-2003,08:00,,,,,,,,,,72,R,ugm-3
15-01-2003,09:00,,,,,,,,,,74,R,ugm-3
15-01-2003,10:00,,,,,,,,,,74,R,ugm-3
15-01-2003,11:00,,,,,,,,,,72,R,ugm-3
15-01-2003,12:00,,,,,,,,,,72,R,ugm-3
15-01-2003,13:00,,,,,,,,,,72,R,ugm-3
15-01-2003,14:00,,,,,,,,,,74,R,ugm-3
15-01-2003,15:00,,,,,,,,,,72,R,ugm-3
15-01-2003,16:00,,,,,,,,,,68,R,ugm-3
15-01-2003,17:00,,,,,,,,,,68,R,ugm-3
15-01-2003,18:00,,,,,,,,,,70,R,ugm-3
15-01-2003,19:00,,,,,,,,,,70,R,ugm-3
15-01-2003,20:00,,,,,,,,,,70,R,ugm-3
15-01-2003,21:00,,,,,,,,,,68,R,ugm-3
15-01-2003,22:00,,,,,,,,,,66,R,ugm-3
15-01-2003,23:00,,,,,,,,,,66,R,ugm-3
15-01-2003,24:00,,,,,,,,,,68,R,ugm-3
16-01-2003,01:00,,,,,,,,,,68,R,ugm-3
16-01-2003,02:00,,,,,,,,,,66,R,ugm-3
16-01-2003,03:00,,,,,,,,,,60,R,ugm-3
16-01-2003,04:00,,,,,,,,,,64,R,ugm-3
16-01-2003,05:00,,,,,,,,,,60,R,ugm-3
16-01-2003,06:00,,,,,,,,,,66,R,ugm-3
16-01-2003,07:00,,,,,,,,,,66,R,ugm-3
16-01-2003,08:00,,,,,,,,,,70,R,ugm-3
16-01-2003,09:00,,,,,,,,,,72,R,ugm-3
16-01-2003,10:00,,,,,,,,,,58,R,ugm-3
16-01-2003,11:00,,,,,,,,,,58,R,ugm-3
16-01-2003,12:00,,,,,,,,,,74,R,ugm-3
16-01-2003,13:00,,,,,,,,,,72,R,ugm-3
16-01-2003,14:00,,,,,,,,,,76,R,ugm-3
16-01-2003,15:00,,,,,,,,,,78,R,ugm-3
16-01-2003,16:00,,,,,,,,,,76,R,ugm-3
16-01-2003,17:00,,,,,,,,,,76,R,ugm-3
16-01-2003,18:00,,,,,,,,,,76,R,ugm-3
16-01-2003,19:00,,,,,,,,,,78,R,ugm-3
16-01-2003,20:00,,,,,,,,,,78,R,ugm-3
16-01-2003,21:00,,,,,,,,,,78,R,ugm-3
16-01-2003,22:00,,,,,,,,,,78,R,ugm-3
16-01-2003,23:00,,,,,,,,,,76,R,ugm-3
16-01-2003,24:00,,,,,,,,,,70,R,ugm-3
17-01-2003,01:00,,,,,,,,,,74,R,ugm-3
17-01-2003,02:00,,,,,,,,,,76,R,ugm-3
17-01-2003,03:00,,,,,,,,,,78,R,ugm-3
17-01-2003,04:00,,,,,,,,,,80,R,ugm-3
17-01-2003,05:00,,,,,,,,,,80,R,ugm-3
17-01-2003,06:00,,,,,,,,,,80,R,ugm-3
17-01-2003,07:00,,,,,,,,,,80,R,ugm-3
17-01-2003,08:00,,,,,,,,,,80,R,ugm-3
17-01-2003,09:00,,,,,,,,,,78,R,ugm-3
17-01-2003,10:00,,,,,,,,,,76,R,ugm-3
17-01-2003,11:00,,,,,,,,,,80,R,ugm-3
17-01-2003,12:00,,,,,,,,,,80,R,ugm-3
17-01-2003,13:00,,,,,,,,,,76,R,ugm-3
17-01-2003,14:00,,,,,,,,,,76,R,ugm-3
17-01-2003,15:00,,,,,,,,,,76,R,ugm-3
17-01-2003,16:00,,,,,,,,,,76,R,ugm-3
17-01-2003,17:00,,,,,,,,,,74,R,ugm-3
17-01-2003,18:00,,,,,,,,,,72,R,ugm-3
17-01-2003,19:00,,,,,,,,,,72,R,ugm-3
17-01-2003,20:00,,,,,,,,,,64,R,ugm-3
17-01-2003,21:00,,,,,,,,,,72,R,ugm-3
17-01-2003,22:00,,,,,,,,,,64,R,ugm-3
17-01-2003,23:00,,,,,,,,,,70,R,ugm-3
17-01-2003,24:00,,,,,,,,,,68,R,ugm-3
18-01-2003,01:00,,,,,,,,,,64,R,ugm-3
18-01-2003,02:00,,,,,,,,,,60,R,ugm-3
18-01-2003,03:00,,,,,,,,,,64,R,ugm-3
18-01-2003,04:00,,,,,,,,,,72,R,ugm-3
18-01-2003,05:00,,,,,,,,,,68,R,ugm-3
18-01-2003,06:00,,,,,,,,,,64,R,ugm-3
18-01-2003,07:00,,,,,,,,,,54,R,ugm-3
18-01-2003,08:00,,,,,,,,,,52,R,ugm-3
18-01-2003,09:00,,,,,,,,,,48,R,ugm-3
18-01-2003,10:00,,,,,,,,,,40,R,ugm-3
18-01-2003,11:00,,,,,,,,,,72,R,ugm-3
18-01-2003,12:00,,,,,,,,,,74,R,ugm-3
18-01-2003,13:00,,,,,,,,,,74,R,ugm-3
18-01-2003,14:00,,,,,,,,,,70,R,ugm-3
18-01-2003,15:00,,,,,,,,,,68,R,ugm-3
18-01-2003,16:00,,,,,,,,,,66,R,ugm-3
18-01-2003,17:00,,,,,,,,,,66,R,ugm-3
18-01-2003,18:00,,,,,,,,,,60,R,ugm-3
18-01-2003,19:00,,,,,,,,,,62,R,ugm-3
18-01-2003,20:00,,,,,,,,,,60,R,ugm-3
18-01-2003,21:00,,,,,,,,,,60,R,ugm-3
18-01-2003,22:00,,,,,,,,,,70,R,ugm-3
18-01-2003,23:00,,,,,,,,,,68,R,ugm-3
18-01-2003,24:00,,,,,,,,,,60,R,ugm-3
19-01-2003,01:00,,,,,,,,,,52,R,ugm-3
19-01-2003,02:00,,,,,,,,,,50,R,ugm-3
19-01-2003,03:00,,,,,,,,,,78,R,ugm-3
19-01-2003,04:00,,,,,,,,,,76,R,ugm-3
19-01-2003,05:00,,,,,,,,,,74,R,ugm-3
19-01-2003,06:00,,,,,,,,,,76,R,ugm-3
19-01-2003,07:00,,,,,,,,,,72,R,ugm-3
19-01-2003,08:00,,,,,,,,,,78,R,ugm-3
19-01-2003,09:00,,,,,,,,,,74,R,ugm-3
19-01-2003,10:00,,,,,,,,,,72,R,ugm-3
19-01-2003,11:00,,,,,,,,,,74,R,ugm-3
19-01-2003,12:00,,,,,,,,,,72,R,ugm-3
19-01-2003,13:00,,,,,,,,,,76,R,ugm-3
19-01-2003,14:00,,,,,,,,,,76,R,ugm-3
19-01-2003,15:00,,,,,,,,,,76,R,ugm-3
19-01-2003,16:00,,,,,,,,,,74,R,ugm-3
19-01-2003,17:00,,,,,,,,,,70,R,ugm-3
19-01-2003,18:00,,,,,,,,,,72,R,ugm-3
19-01-2003,19:00,,,,,,,,,,72,R,ugm-3
19-01-2003,20:00,,,,,,,,,,74,R,ugm-3
19-01-2003,21:00,,,,,,,,,,72,R,ugm-3
19-01-2003,22:00,,,,,,,,,,76,R,ugm-3
19-01-2003,23:00,,,,,,,,,,78,R,ugm-3
19-01-2003,24:00,,,,,,,,,,80,R,ugm-3
20-01-2003,01:00,,,,,,,,,,82,R,ugm-3
20-01-2003,02:00,,,,,,,,,,86,R,ugm-3
20-01-2003,03:00,,,,,,,,,,84,R,ugm-3
20-01-2003,04:00,,,,,,,,,,88,R,ugm-3
20-01-2003,05:00,,,,,,,,,,88,R,ugm-3
20-01-2003,06:00,,,,,,,,,,84,R,ugm-3
20-01-2003,07:00,,,,,,,,,,86,R,ugm-3
20-01-2003,08:00,,,,,,,,,,84,R,ugm-3
20-01-2003,09:00,,,,,,,,,,84,R,ugm-3
20-01-2003,10:00,,,,,,,,,,84,R,ugm-3
20-01-2003,11:00,,,,,,,,,,86,R,ugm-3
20-01-2003,12:00,,,,,,,,,,88,R,ugm-3
20-01-2003,13:00,,,,,,,,,,86,R,ugm-3
20-01-2003,14:00,,,,,,,,,,86,R,ugm-3
20-01-2003,15:00,,,,,,,,,,86,R,ugm-3
20-01-2003,16:00,,,,,,,,,,84,R,ugm-3
20-01-2003,17:00,,,,,,,,,,84,R,ugm-3
20-01-2003,18:00,,,,,,,,,,82,R,ugm-3
20-01-2003,19:00,,,,,,,,,,84,R,ugm-3
20-01-2003,20:00,,,,,,,,,,84,R,ugm-3
20-01-2003,21:00,,,,,,,,,,84,R,ugm-3
20-01-2003,22:00,,,,,,,,,,80,R,ugm-3
20-01-2003,23:00,,,,,,,,,,84,R,ugm-3
20-01-2003,24:00,,,,,,,,,,82,R,ugm-3
21-01-2003,01:00,,,,,,,,,,84,R,ugm-3
21-01-2003,02:00,,,,,,,,,,82,R,ugm-3
21-01-2003,03:00,,,,,,,,,,82,R,ugm-3
21-01-2003,04:00,,,,,,,,,,84,R,ugm-3
21-01-2003,05:00,,,,,,,,,,82,R,ugm-3
21-01-2003,06:00,,,,,,,,,,84,R,ugm-3
21-01-2003,07:00,,,,,,,,,,88,R,ugm-3
21-01-2003,08:00,,,,,,,,,,88,R,ugm-3
21-01-2003,09:00,,,,,,,,,,70,R,ugm-3
21-01-2003,10:00,,,,,,,,,,56,R,ugm-3
21-01-2003,11:00,,,,,,,,,,58,R,ugm-3
21-01-2003,12:00,,,,,,,,,,76,R,ugm-3
21-01-2003,13:00,,,,,,,,,,80,R,ugm-3
21-01-2003,14:00,,,,,,,,,,74,R,ugm-3
21-01-2003,15:00,,,,,,,,,,68,R,ugm-3
21-01-2003,16:00,,,,,,,,,,74,R,ugm-3
21-01-2003,17:00,,,,,,,,,,66,R,ugm-3
21-01-2003,18:00,,,,,,,,,,74,R,ugm-3
21-01-2003,19:00,,,,,,,,,,68,R,ugm-3
21-01-2003,20:00,,,,,,,,,,78,R,ugm-3
21-01-2003,21:00,,,,,,,,,,78,R,ugm-3
21-01-2003,22:00,,,,,,,,,,80,R,ugm-3
21-01-2003,23:00,,,,,,,,,,78,R,ugm-3
21-01-2003,24:00,,,,,,,,,,68,R,ugm-3
22-01-2003,01:00,,,,,,,,,,66,R,ugm-3
22-01-2003,02:00,,,,,,,,,,60,R,ugm-3
22-01-2003,03:00,,,,,,,,,,58,R,ugm-3
22-01-2003,04:00,,,,,,,,,,66,R,ugm-3
22-01-2003,05:00,,,,,,,,,,62,R,ugm-3
22-01-2003,06:00,,,,,,,,,,66,R,ugm-3
22-01-2003,07:00,,,,,,,,,,60,R,ugm-3
22-01-2003,08:00,,,,,,,,,,60,R,ugm-3
22-01-2003,09:00,,,,,,,,,,56,R,ugm-3
22-01-2003,10:00,,,,,,,,,,58,R,ugm-3
22-01-2003,11:00,,,,,,,,,,60,R,ugm-3
22-01-2003,12:00,,,,,,,,,,62,R,ugm-3
22-01-2003,13:00,,,,,,,,,,66,R,ugm-3
22-01-2003,14:00,,,,,,,,,,66,R,ugm-3
22-01-2003,15:00,,,,,,,,,,58,R,ugm-3
22-01-2003,16:00,,,,,,,,,,66,R,ugm-3
22-01-2003,17:00,,,,,,,,,,68,R,ugm-3
22-01-2003,18:00,,,,,,,,,,68,R,ugm-3
22-01-2003,19:00,,,,,,,,,,66,R,ugm-3
22-01-2003,20:00,,,,,,,,,,68,R,ugm-3
22-01-2003,21:00,,,,,,,,,,72,R,ugm-3
22-01-2003,22:00,,,,,,,,,,68,R,ugm-3
22-01-2003,23:00,,,,,,,,,,68,R,ugm-3
22-01-2003,24:00,,,,,,,,,,68,R,ugm-3
23-01-2003,01:00,,,,,,,,,,70,R,ugm-3
23-01-2003,02:00,,,,,,,,,,44,R,ugm-3
23-01-2003,03:00,,,,,,,,,,56,R,ugm-3
23-01-2003,04:00,,,,,,,,,,66,R,ugm-3
23-01-2003,05:00,,,,,,,,,,66,R,ugm-3
23-01-2003,06:00,,,,,,,,,,64,R,ugm-3
23-01-2003,07:00,,,,,,,,,,62,R,ugm-3
23-01-2003,08:00,,,,,,,,,,62,R,ugm-3
23-01-2003,09:00,,,,,,,,,,60,R,ugm-3
23-01-2003,10:00,,,,,,,,,,62,R,ugm-3
23-01-2003,11:00,,,,,,,,,,62,R,ugm-3
23-01-2003,12:00,,,,,,,,,,64,R,ugm-3
23-01-2003,13:00,,,,,,,,,,66,R,ugm-3
23-01-2003,14:00,,,,,,,,,,68,R,ugm-3
23-01-2003,15:00,,,,,,,,,,72,R,ugm-3
23-01-2003,16:00,,,,,,,,,,66,R,ugm-3
23-01-2003,17:00,,,,,,,,,,62,R,ugm-3
23-01-2003,18:00,,,,,,,,,,60,R,ugm-3
23-01-2003,19:00,,,,,,,,,,48,R,ugm-3
23-01-2003,20:00,,,,,,,,,,46,R,ugm-3
23-01-2003,21:00,,,,,,,,,,48,R,ugm-3
23-01-2003,22:00,,,,,,,,,,58,R,ugm-3
23-01-2003,23:00,,,,,,,,,,54,R,ugm-3
23-01-2003,24:00,,,,,,,,,,56,R,ugm-3
24-01-2003,01:00,,,,,,,,,,50,R,ugm-3
24-01-2003,02:00,,,,,,,,,,42,R,ugm-3
24-01-2003,03:00,,,,,,,,,,32,R,ugm-3
24-01-2003,04:00,,,,,,,,,,28,R,ugm-3
24-01-2003,05:00,,,,,,,,,,38,R,ugm-3
24-01-2003,06:00,,,,,,,,,,24,R,ugm-3
24-01-2003,07:00,,,,,,,,,,30,R,ugm-3
24-01-2003,08:00,,,,,,,,,,26,R,ugm-3
24-01-2003,09:00,,,,,,,,,,20,R,ugm-3
24-01-2003,10:00,,,,,,,,,,4,R,ugm-3
24-01-2003,11:00,,,,,,,,,,20,R,ugm-3
24-01-2003,12:00,,,,,,,,,,56,R,ugm-3
24-01-2003,13:00,,,,,,,,,,68,R,ugm-3
24-01-2003,14:00,,,,,,,,,,70,R,ugm-3
24-01-2003,15:00,,,,,,,,,,72,R,ugm-3
24-01-2003,16:00,,,,,,,,,,72,R,ugm-3
24-01-2003,17:00,,,,,,,,,,68,R,ugm-3
24-01-2003,18:00,,,,,,,,,,68,R,ugm-3
24-01-2003,19:00,,,,,,,,,,68,R,ugm-3
24-01-2003,20:00,,,,,,,,,,68,R,ugm-3
24-01-2003,21:00,,,,,,,,,,64,R,ugm-3
24-01-2003,22:00,,,,,,,,,,70,R,ugm-3
24-01-2003,23:00,,,,,,,,,,70,R,ugm-3
24-01-2003,24:00,,,,,,,,,,72,R,ugm-3
25-01-2003,01:00,,,,,,,,,,74,R,ugm-3
25-01-2003,02:00,,,,,,,,,,74,R,ugm-3
25-01-2003,03:00,,,,,,,,,,76,R,ugm-3
25-01-2003,04:00,,,,,,,,,,78,R,ugm-3
25-01-2003,05:00,,,,,,,,,,76,R,ugm-3
25-01-2003,06:00,,,,,,,,,,78,R,ugm-3
25-01-2003,07:00,,,,,,,,,,76,R,ugm-3
25-01-2003,08:00,,,,,,,,,,72,R,ugm-3
25-01-2003,09:00,,,,,,,,,,66,R,ugm-3
25-01-2003,10:00,,,,,,,,,,74,R,ugm-3
25-01-2003,11:00,,,,,,,,,,76,R,ugm-3
25-01-2003,12:00,,,,,,,,,,78,R,ugm-3
25-01-2003,13:00,,,,,,,,,,78,R,ugm-3
25-01-2003,14:00,,,,,,,,,,78,R,ugm-3
25-01-2003,15:00,,,,,,,,,,78,R,ugm-3
25-01-2003,16:00,,,,,,,,,,76,R,ugm-3
25-01-2003,17:00,,,,,,,,,,76,R,ugm-3
25-01-2003,18:00,,,,,,,,,,72,R,ugm-3
25-01-2003,19:00,,,,,,,,,,68,R,ugm-3
25-01-2003,20:00,,,,,,,,,,66,R,ugm-3
25-01-2003,21:00,,,,,,,,,,70,R,ugm-3
25-01-2003,22:00,,,,,,,,,,70,R,ugm-3
25-01-2003,23:00,,,,,,,,,,64,R,ugm-3
25-01-2003,24:00,,,,,,,,,,64,R,ugm-3
26-01-2003,01:00,,,,,,,,,,68,R,ugm-3
26-01-2003,02:00,,,,,,,,,,72,R,ugm-3
26-01-2003,03:00,,,,,,,,,,78,R,ugm-3
26-01-2003,04:00,,,,,,,,,,78,R,ugm-3
26-01-2003,05:00,,,,,,,,,,70,R,ugm-3
26-01-2003,06:00,,,,,,,,,,68,R,ugm-3
26-01-2003,07:00,,,,,,,,,,68,R,ugm-3
26-01-2003,08:00,,,,,,,,,,64,R,ugm-3
26-01-2003,09:00,,,,,,,,,,60,R,ugm-3
26-01-2003,10:00,,,,,,,,,,60,R,ugm-3
26-01-2003,11:00,,,,,,,,,,60,R,ugm-3
26-01-2003,12:00,,,,,,,,,,56,R,ugm-3
26-01-2003,13:00,,,,,,,,,,56,R,ugm-3
26-01-2003,14:00,,,,,,,,,,54,R,ugm-3
26-01-2003,15:00,,,,,,,,,,54,R,ugm-3
26-01-2003,16:00,,,,,,,,,,50,R,ugm-3
26-01-2003,17:00,,,,,,,,,,50,R,ugm-3
26-01-2003,18:00,,,,,,,,,,52,R,ugm-3
26-01-2003,19:00,,,,,,,,,,54,R,ugm-3
26-01-2003,20:00,,,,,,,,,,54,R,ugm-3
26-01-2003,21:00,,,,,,,,,,54,R,ugm-3
26-01-2003,22:00,,,,,,,,,,56,R,ugm-3
26-01-2003,23:00,,,,,,,,,,60,R,ugm-3
26-01-2003,24:00,,,,,,,,,,60,R,ugm-3
27-01-2003,01:00,,,,,,,,,,62,R,ugm-3
27-01-2003,02:00,,,,,,,,,,54,R,ugm-3
27-01-2003,03:00,,,,,,,,,,50,R,ugm-3
27-01-2003,04:00,,,,,,,,,,42,R,ugm-3
27-01-2003,05:00,,,,,,,,,,42,R,ugm-3
27-01-2003,06:00,,,,,,,,,,46,R,ugm-3
27-01-2003,07:00,,,,,,,,,,52,R,ugm-3
27-01-2003,08:00,,,,,,,,,,52,R,ugm-3
27-01-2003,09:00,,,,,,,,,,50,R,ugm-3
27-01-2003,10:00,,,,,,,,,,50,R,ugm-3
27-01-2003,11:00,,,,,,,,,,60,R,ugm-3
27-01-2003,12:00,,,,,,,,,,62,R,ugm-3
27-01-2003,13:00,,,,,,,,,,58,R,ugm-3
27-01-2003,14:00,,,,,,,,,,56,R,ugm-3
27-01-2003,15:00,,,,,,,,,,54,R,ugm-3
27-01-2003,16:00,,,,,,,,,,58,R,ugm-3
27-01-2003,17:00,,,,,,,,,,58,R,ugm-3